Flag for Brazil Weather past 2 weeks in Joinville, Santa Catarina, Brazil

Now
55 °F

Passing clouds.


Feels Like: 54 °F
Forecast: N/A
Wind: 7 mph from West

Location: Curitiba Aeroporto

Current Time: Jul 24, 2014 at 8:59:51 PM

Latest Report: Jul 24, 2014 at 8:00 PM


Visibility: N/A

Pressure: 29.98 "Hg

Humidity: 94%

Dew point: 54 °F

Location of JoinvilleLocation

Historic Weather in Joinville — Graph

°F

Joinville temperature yesterday

Maximum temperature yesterday: 73 °F (at 1:00 PM)
Minimum temperature yesterday: 55 °F (at 3:00 AM)
Average temperature yesterday: 64 °F

Past Weeks' High & Low Weather Summary

 TemperatureHumidityPressure
High73 °F (Jul 17, 1:00 PM)100% (Jul 9, 8:00 PM)30.42 "Hg (Jul 9, 8:00 PM)
Low34 °F (Jul 20, 7:00 AM)31% (Jul 19, 3:00 PM)29.89 "Hg (Jul 24, 2:00 PM)
Average55 °F88%30.24 "Hg
* Reported Jul 9 8:00 PM — Jul 24 8:00 PM, Joinville, Weather by CustomWeather, © 2014

Note: Actual official high and low records may vary slightly from our data, if they occured in-between our weather recording intervals... More about our weather records

Advertising

Joinville weather history for previous 24 hours

 ConditionsComfort  
Time TempWeatherWind HumidityBarometerVisibility
8:00 PM
Jul 24
55 °FPassing clouds.7 mph94%29.98 "HgN/A
7:00 PM55 °FPassing clouds.8 mph94%29.98 "HgN/A
6:00 PM54 °FPartly cloudy.8 mph100%29.95 "Hg5 mi
5:00 PM55 °FFog.12 mph100%29.92 "Hg2 mi
4:00 PM59 °FRain. Fog.16 mph100%29.89 "Hg1 mi
3:00 PM61 °FBroken clouds.9 mph94%29.89 "Hg4 mi
2:00 PM63 °FLight rain. Broken clouds.9 mph88%29.89 "Hg3 mi
1:00 PM64 °FPartly sunny.14 mph83%29.92 "HgN/A
12:00 PM63 °FBroken clouds.9 mph88%29.92 "HgN/A
11:00 AM63 °FCloudy.9 mph88%29.95 "HgN/A
10:00 AM59 °FMostly cloudy.12 mph100%29.95 "HgN/A
9:00 AM61 °FMostly cloudy.9 mph94%29.95 "Hg5 mi
8:00 AM59 °FRain. Fog.5 mph100%N/A2 mi
7:00 AM59 °FLight rain. Fog.9 mph100%29.98 "Hg2 mi
6:00 AM61 °FLight rain. Broken clouds.12 mph94%29.95 "Hg4 mi
5:00 AM61 °FPassing clouds.5 mph88%29.92 "HgN/A
4:00 AM61 °FPassing clouds.6 mph88%29.92 "HgN/A
3:00 AM61 °FPassing clouds.7 mph88%29.92 "HgN/A
2:00 AM63 °FPassing clouds.7 mph83%29.92 "HgN/A
1:00 AM63 °FPassing clouds.7 mph77%29.98 "HgN/A
12:00 AM64 °FPassing clouds.8 mph73%30.01 "HgN/A
11:00 PM
Jul 23
61 °FPassing clouds.6 mph77%30.01 "HgN/A
10:00 PM61 °FPassing clouds.7 mph77%30.01 "HgN/A
9:00 PM63 °FPassing clouds.3 mph73%30.01 "HgN/A
8:00 PM64 °FPassing clouds.6 mph68%30.01 "HgN/A
Weather by CustomWeather, © 2014

See weather overviewHow to use our weather pages